軌道要素
Epoch 2005 July 9.0 TT = JDT 2453560.5
T 2005 June 26.8334 TT MPCN
q 2.601924 (2000.0) P Q
n 0.1285600 Peri. 354.7025 -0.4576337 +0.8600462
a 3.888053 Node 247.8970 -0.8065678 -0.5083270
e 0.330790 Incl. 14.0924 -0.3741922 +0.0438653
P 7.67
From 115 observations 1983-1998, mean residual 0".8. Nongravitational
parameters A1 = +3.79, A2 = +0.5682.
|